Location: Hamburg
(53.5554°N, 9.9941°E)
Time: 02:53:09
(UTC+02:00)

ISS - Pass Details

Date: 15 May 2021
Orbit: 417 x 422 km, 51.6° (Epoch: 15 June)

Event Time Altitude Azimuth Distance (km) Brightness Sun altitude
Rises 02:01:32 0° 270° (W) 2,371 0.0 -16.9°
Reaches altitude 10° 02:03:38 10° 267° (W) 1,507 -1.1 -16.9°
Maximum altitude 02:06:59 61° 186° (S) 485 -3.8 -16.8°
Drops below altitude 10° 02:10:20 10° 106° (ESE) 1,508 -1.0 -16.6°
Sets 02:12:26 0° 103° (ESE) 2,373 0.1 -16.6°
